Wind_Speed
29 17 16 15 16 17 16 16 18 19 21 22 23 21 18 17 17 17 19 21 23 25 27 28 30 32 33 34 36 39 41 43 47 48 47 44 42 41 40 39 40 40 41
31 20 17 15 15 16 17 18 18 17 15 13 11 10 10 11 13 15 18 20 22 23 25 27 29 31 34 37 40 44 46 45 45 48 48 48 42 41 39 38 39 39 41
31 19 19 19 18 18 17 17 14 11 10 9 8 9 11 13 14 16 17 19 20 22 24 27 30 33 37 40 43 43 43 42 41 41 45 48 50 52 49 46 44 45 45
31 22 21 19 18 17 15 14 13 11 9 8 8 9 10 12 14 15 17 18 20 24 27 31 34 38 40 40 40 40 42 42 41 38 36 39 45 50 59 54 49 48 49
33 22 22 20 18 16 15 14 13 11 9 8 8 9 11 13 15 16 18 20 23 27 32 35 38 37 37 39 39 39 39 39 40 41 41 41 41 43 50 62 58 56 54
31 25 23 21 19 18 17 16 14 11 9 9 8 10 13 16 17 18 22 26 29 32 35 37 38 38 39 39 38 37 37 38 39 39 41 43 45 48 51 55 59 62 61
25 23 24 22 21 20 19 17 14 12 10 9 9 13 16 19 20 22 26 30 34 36 39 39 39 40 39 38 37 37 38 39 39 40 42 43 45 48 51 56 61 65 65
21 23 24 23 23 23 20 18 15 12 11 11 13 17 20 22 23 26 31 34 38 41 42 42 41 40 38 38 38 38 39 40 41 42 43 45 46 49 51 55 60 67 67
19 23 23 24 25 24 21 18 15 14 13 14 17 20 24 26 28 30 34 38 41 43 43 43 41 39 38 39 39 40 42 43 43 44 46 48 49 51 53 55 57 61 70
21 24 24 25 27 25 22 19 17 16 17 18 21 24 27 29 31 34 37 41 43 44 44 43 40 39 39 41 42 43 45 46 45 47 49 50 51 53 54 56 57 57 59
22 23 24 27 27 25 23 20 19 19 20 23 25 28 30 32 34 37 40 43 44 45 43 41 40 40 41 43 45 46 47 47 48 49 51 51 52 54 55 56 56 57 56
23 24 24 25 25 25 24 22 21 21 23 26 28 31 33 35 37 40 43 43 44 44 42 41 41 42 43 45 48 49 48 48 49 50 52 52 53 54 55 55 56 56 54
23 24 23 22 23 25 25 24 23 23 26 28 31 33 35 38 40 42 43 44 43 42 41 41 42 44 46 48 48 48 48 49 50 51 52 52 53 55 55 55 55 54 53
16 20 20 21 23 24 25 25 25 26 28 31 33 35 37 39 41 42 43 43 42 41 41 42 44 46 48 48 49 49 49 49 50 50 51 52 54 55 54 54 53 52 52
12 17 14 18 22 23 24 25 26 28 30 32 34 36 39 40 40 42 43 41 40 41 42 44 46 47 48 47 48 49 51 51 51 51 52 53 54 52 51 49 49 50 51
13 16 19 22 21 22 23 24 26 29 31 32 35 37 38 39 40 41 40 39 40 41 44 46 48 48 46 47 48 50 51 51 52 53 53 54 53 52 51 50 49 44 41
12 13 18 22 22 21 23 25 27 29 31 34 36 36 37 39 40 40 39 40 41 43 46 46 46 46 47 48 49 50 51 51 52 53 54 54 53 51 51 51 49 47 45
15 16 20 21 20 21 23 24 26 30 33 33 34 35 37 38 38 38 39 41 43 45 45 44 46 48 49 50 50 50 51 52 53 53 54 53 53 52 51 49 47 45 50
16 18 19 19 19 21 22 24 29 30 30 31 33 35 35 36 36 37 39 42 44 42 43 45 48 50 50 50 50 51 53 55 55 55 54 53 53 52 48 42 46 52 47
17 18 17 18 19 20 24 26 26 27 29 31 32 33 34 35 36 38 40 41 41 43 45 47 49 49 50 50 51 52 53 55 55 55 54 53 51 48 40 42 47 46 42
17 17 17 17 19 22 23 23 25 27 28 30 30 32 32 34 36 39 39 40 42 44 45 47 47 49 50 51 51 51 52 52 53 54 53 51 46 41 43 39 39 38 37
15 15 15 18 20 20 21 23 24 26 27 28 29 30 31 34 37 38 39 40 42 44 46 48 49 50 51 51 51 50 49 49 50 51 50 45 42 41 38 35 34 33 36
13 15 17 17 18 20 22 22 24 25 26 27 27 29 32 35 37 38 39 41 43 46 48 49 50 52 52 51 50 49 48 47 47 46 43 41 40 37 34 30 30 33 37
15 15 15 16 18 20 21 22 24 24 24 25 28 31 33 35 36 37 39 42 45 48 50 51 53 54 53 51 48 47 48 48 45 44 43 39 36 33 29 27 29 33 29
13 14 15 17 18 20 21 22 22 22 24 27 30 32 34 36 37 38 40 43 46 49 51 51 52 53 52 49 46 46 47 45 43 43 40 37 33 29 27 29 32 26 26
13 15 16 17 19 19 20 21 21 23 25 28 30 33 36 37 37 39 41 43 46 48 48 48 48 48 46 45 44 45 44 41 40 39 37 34 30 29 30 34 28 25 26
Wind_Direction
265 259 250 247 242 239 240 243 248 253 258 262 265 269 268 270 274 278 283 287 290 293 295 298 300 300 300 301 302 303 304 303 303 302 301 301 301 301 300 299 300 301 302
257 245 244 240 237 239 244 248 255 261 258 249 250 254 261 273 283 287 290 291 293 295 298 299 299 302 303 304 304 304 304 305 307 307 307 305 303 303 303 300 298 298 297
255 238 240 238 238 244 251 257 254 231 226 232 246 266 277 283 288 289 291 292 295 299 301 302 303 303 304 304 304 304 305 305 305 307 310 312 313 311 310 309 309 307 306
249 236 235 237 236 241 244 236 219 214 221 241 260 274 284 289 289 289 292 298 304 305 305 306 307 307 307 307 307 306 307 308 309 309 307 308 311 314 311 311 313 310 308
243 236 231 231 229 230 223 215 212 218 229 244 261 280 296 304 303 302 302 304 306 310 311 311 311 311 311 310 310 310 309 310 313 314 314 311 309 310 309 310 312 310 308
237 229 224 222 221 218 209 209 215 224 237 254 276 306 320 319 309 305 309 313 315 315 316 317 316 315 314 313 313 313 314 315 314 314 313 312 313 313 310 308 309 309 311
229 220 215 215 215 209 208 213 222 232 246 265 293 318 322 322 315 313 314 314 316 319 320 320 320 318 317 316 317 318 317 315 314 313 311 311 312 311 311 312 311 310 311
215 208 210 213 210 207 211 219 229 243 261 278 300 316 321 320 315 313 315 317 320 322 322 322 321 319 317 318 319 318 315 313 313 312 311 310 312 312 312 312 311 310 309
201 203 208 210 208 211 216 226 239 256 271 287 301 311 316 317 314 315 316 317 319 321 321 322 320 319 320 319 318 317 315 314 314 312 311 312 313 311 312 313 312 311 311
195 202 208 207 209 215 222 234 248 263 277 290 302 308 312 314 313 313 315 316 319 320 321 320 320 320 320 320 319 317 316 315 313 312 312 312 311 312 313 313 312 309 306
204 207 210 210 215 220 229 240 253 269 282 293 300 307 310 310 310 312 314 318 319 319 319 319 320 321 321 319 318 317 316 314 313 312 311 313 313 314 314 313 311 309 307
210 211 215 218 221 226 235 245 259 275 284 293 299 304 306 308 309 312 315 318 318 319 319 320 322 322 320 319 318 317 315 314 312 313 314 314 314 316 315 314 312 310 309
209 212 219 224 228 234 241 250 263 278 286 293 298 301 304 306 308 313 316 318 319 319 321 322 322 320 320 320 318 316 315 315 316 316 315 317 318 318 316 314 313 311 310
214 216 225 232 234 239 247 256 267 278 288 293 297 299 302 305 309 314 317 318 319 321 322 321 321 322 321 320 318 316 317 317 316 317 318 320 319 317 317 315 315 314 311
221 224 233 244 244 247 254 262 271 282 289 293 296 298 302 307 312 314 317 318 321 321 322 323 322 322 321 319 319 319 319 319 319 320 321 319 318 318 316 315 313 309 309
230 240 241 246 251 253 259 268 279 284 289 293 295 299 303 308 311 314 315 319 320 323 323 324 323 321 321 322 322 320 320 321 322 321 320 319 319 317 316 313 311 310 303
248 259 255 252 257 260 268 277 282 287 289 292 295 300 305 309 312 314 318 322 323 324 326 323 321 323 324 323 322 322 322 321 321 321 320 319 318 318 316 314 315 313 308
251 250 248 252 258 264 272 280 282 284 289 293 297 303 307 310 313 319 321 322 325 326 323 324 326 325 325 324 324 322 321 321 322 322 320 320 320 321 320 320 314 312 308
247 242 245 251 259 269 276 279 282 287 291 296 302 306 308 312 316 319 322 325 324 324 326 328 328 326 326 325 325 323 323 324 323 322 322 322 323 322 321 319 313 309 317
242 243 246 255 266 274 277 281 285 291 296 301 303 307 311 314 318 322 324 324 325 328 329 330 328 326 325 326 326 326 325 324 323 321 322 323 322 323 324 313 312 316 320
233 240 251 263 269 274 280 285 292 296 298 302 306 309 313 317 321 324 324 326 329 331 329 326 325 326 326 327 327 325 324 323 322 323 324 325 326 325 318 321 318 320 322
236 250 260 268 275 281 287 293 295 296 301 304 308 311 317 320 322 325 327 329 329 329 328 327 327 328 328 327 326 325 323 323 323 324 326 328 327 324 326 325 324 325 325
248 262 269 276 282 289 292 294 297 300 303 306 310 316 319 321 324 326 327 330 330 328 329 328 328 329 328 328 327 325 323 325 328 328 328 329 329 329 329 330 331 328 325
265 271 276 283 289 291 296 297 299 303 305 310 315 317 320 323 324 327 329 328 329 329 329 330 330 330 329 329 328 328 330 331 331 330 331 331 332 330 332 333 333 332 335
267 275 284 291 293 295 297 299 302 304 311 314 315 319 322 324 327 328 329 330 331 331 331 332 330 328 329 333 334 333 333 333 331 329 332 334 333 337 339 339 338 342 343
278 287 291 292 293 295 298 300 305 310 312 314 319 321 324 326 327 327 328 330 330 331 332 331 329 329 331 334 334 334 334 332 332 333 334 336 339 342 342 343 347 352 349
Height
3085 3089 3090 3090 3091 3094 3095 3097 3098 3099 3100 3099 3099 3099 3100 3099 3098 3098 3097 3097 3096 3094 3092 3089 3087 3084 3080 3078 3074 3070 3067 3064 3058 3053 3050 3047 3045 3041 3037 3033 3029 3026 3022
3082 3085 3085 3087 3089 3090 3092 3094 3094 3095 3095 3095 3096 3097 3097 3096 3096 3095 3095 3093 3092 3090 3088 3085 3082 3079 3076 3072 3068 3063 3059 3056 3050 3042 3036 3031 3033 3029 3026 3023 3020 3017 3013
3077 3080 3082 3084 3086 3088 3089 3090 3091 3091 3092 3093 3094 3094 3094 3094 3093 3092 3091 3089 3088 3086 3083 3080 3077 3073 3069 3065 3061 3056 3050 3047 3045 3038 3027 3018 3013 3007 3009 3009 3007 3004 3000
3071 3075 3078 3080 3082 3084 3086 3087 3088 3089 3090 3091 3091 3092 3091 3091 3090 3089 3087 3085 3083 3081 3077 3074 3071 3067 3062 3057 3053 3048 3042 3037 3033 3031 3027 3020 3009 2999 2986 2990 2993 2991 2987
3067 3071 3074 3077 3079 3081 3083 3084 3086 3087 3088 3089 3089 3089 3088 3087 3086 3084 3082 3081 3079 3076 3072 3068 3064 3059 3055 3050 3045 3040 3035 3029 3024 3018 3013 3011 3007 3002 2989 2971 2973 2973 2970
3062 3066 3070 3073 3076 3078 3080 3082 3084 3085 3086 3086 3086 3086 3085 3084 3082 3080 3078 3075 3072 3070 3066 3061 3056 3051 3046 3042 3037 3032 3027 3021 3017 3012 3006 2999 2993 2986 2980 2971 2964 2955 2953
3057 3062 3066 3070 3073 3076 3078 3080 3082 3083 3083 3084 3083 3083 3082 3080 3078 3076 3073 3070 3067 3063 3058 3054 3048 3043 3038 3033 3028 3024 3018 3013 3008 3003 2997 2992 2986 2979 2970 2960 2950 2940 2938
3053 3058 3062 3066 3070 3073 3075 3078 3079 3080 3080 3080 3080 3079 3077 3076 3074 3071 3068 3065 3060 3055 3051 3046 3041 3035 3030 3025 3020 3015 3010 3005 3000 2994 2988 2981 2976 2968 2961 2951 2940 2926 2922
3051 3055 3059 3063 3067 3070 3072 3075 3076 3077 3077 3077 3076 3075 3073 3071 3069 3066 3062 3058 3053 3048 3043 3038 3033 3028 3022 3017 3012 3006 3001 2995 2989 2983 2977 2970 2964 2956 2949 2941 2931 2918 2902
3048 3052 3056 3060 3063 3066 3069 3071 3073 3073 3073 3073 3072 3070 3068 3065 3062 3059 3055 3051 3046 3041 3036 3030 3025 3020 3015 3009 3003 2998 2992 2985 2979 2972 2964 2959 2952 2944 2937 2929 2919 2909 2897
3046 3049 3053 3057 3060 3064 3066 3068 3069 3069 3069 3068 3067 3065 3062 3059 3056 3052 3048 3044 3038 3033 3028 3023 3018 3012 3007 3001 2995 2989 2982 2974 2968 2961 2953 2947 2938 2931 2923 2914 2905 2895 2885
3043 3047 3051 3054 3058 3061 3063 3064 3065 3065 3065 3064 3062 3059 3056 3053 3049 3045 3041 3036 3031 3025 3020 3015 3010 3004 2999 2992 2985 2977 2971 2964 2956 2948 2941 2934 2926 2918 2909 2900 2891 2881 2872
3040 3044 3048 3052 3055 3057 3059 3061 3061 3061 3060 3058 3056 3053 3050 3046 3042 3038 3033 3029 3024 3019 3013 3007 3002 2997 2990 2982 2975 2967 2960 2953 2944 2936 2928 2921 2912 2903 2895 2886 2876 2868 2859
3039 3043 3046 3049 3052 3054 3055 3056 3057 3056 3055 3053 3050 3046 3043 3039 3035 3031 3026 3022 3017 3011 3006 3001 2994 2987 2980 2972 2964 2956 2949 2942 2934 2926 2917 2908 2900 2891 2881 2872 2863 2854 2846
3038 3040 3043 3046 3048 3049 3051 3052 3052 3051 3049 3046 3043 3040 3036 3032 3028 3024 3020 3014 3009 3003 2998 2991 2985 2978 2970 2963 2954 2945 2937 2930 2922 2914 2906 2899 2889 2880 2871 2861 2853 2845 2837
3036 3038 3040 3042 3044 3045 3046 3047 3047 3045 3043 3040 3037 3033 3030 3026 3022 3017 3012 3006 3002 2996 2990 2983 2975 2969 2962 2952 2944 2935 2926 2919 2910 2903 2896 2886 2877 2868 2860 2851 2843 2838 2829
3032 3034 3035 3037 3039 3040 3041 3041 3040 3039 3036 3033 3030 3027 3023 3019 3015 3010 3004 2999 2995 2989 2981 2975 2967 2959 2951 2943 2934 2925 2917 2909 2901 2893 2883 2874 2866 2857 2848 2840 2831 2825 2818
3028 3029 3030 3032 3034 3035 3035 3036 3035 3032 3029 3026 3023 3020 3016 3012 3008 3002 2998 2992 2986 2980 2974 2966 2958 2949 2941 2933 2925 2916 2908 2900 2891 2881 2872 2862 2854 2845 2836 2827 2819 2812 2805
3023 3025 3026 3028 3029 3030 3031 3029 3027 3025 3023 3019 3017 3013 3009 3005 3000 2996 2991 2984 2978 2973 2965 2957 2948 2939 2932 2923 2915 2905 2897 2888 2880 2870 2860 2851 2843 2834 2826 2818 2809 2800 2793
3019 3021 3023 3024 3025 3025 3024 3023 3021 3019 3016 3013 3010 3006 3002 2998 2994 2989 2983 2977 2970 2963 2955 2947 2940 2932 2924 2915 2905 2895 2884 2875 2868 2860 2851 2843 2834 2825 2818 2811 2799 2789 2783
3015 3017 3018 3020 3020 3019 3018 3017 3015 3012 3010 3007 3003 3000 2996 2992 2986 2981 2975 2969 2961 2954 2948 2941 2934 2925 2915 2906 2896 2886 2875 2866 2856 2848 2841 2833 2824 2816 2809 2801 2792 2783 2775
3011 3013 3015 3015 3014 3014 3012 3011 3009 3006 3003 3001 2997 2994 2990 2984 2979 2973 2967 2961 2953 2947 2941 2932 2924 2915 2906 2896 2887 2878 2868 2859 2848 2840 2832 2823 2815 2808 2800 2792 2785 2778 2771
3008 3010 3010 3009 3009 3008 3006 3005 3002 3000 2998 2995 2992 2987 2983 2978 2972 2966 2959 2953 2946 2939 2931 2923 2914 2905 2896 2887 2878 2869 2860 2851 2841 2833 2824 2816 2808 2800 2793 2787 2780 2773 2766
3005 3005 3005 3005 3004 3002 3000 2999 2997 2995 2992 2989 2984 2980 2976 2971 2966 2959 2952 2946 2939 2931 2922 2913 2904 2895 2886 2878 2869 2859 2850 2842 2833 2824 2816 2809 2802 2795 2788 2783 2776 2768 2760
3001 3001 3001 3000 2998 2997 2995 2993 2991 2989 2986 2982 2979 2974 2969 2964 2958 2952 2946 2939 2931 2922 2912 2904 2894 2884 2877 2869 2860 2851 2843 2834 2826 2817 2810 2802 2795 2789 2784 2778 2771 2764 2757
2996 2996 2996 2995 2993 2992 2990 2988 2986 2983 2980 2976 2972 2967 2962 2956 2951 2945 2940 2934 2925 2916 2907 2897 2887 2879 2870 2862 2854 2846 2838 2829 2821 2812 2804 2797 2791 2785 2778 2772 2765 2760 2755